TimeAEST,TemperatureF,Dew PointF,Humidity,Sea Level PressureIn,VisibilityMPH,Wind Direction,Wind SpeedMPH,Gust SpeedMPH,PrecipitationIn,Events,Conditions,WindDirDegrees,DateUTC
12:00 AM,77,76,96,29.68,,West,1.2,,,,,270,2013-02-27 14:00:00
12:00 AM,77.0,77.0,100,29.68,6.2,West,1.2,-,N/A,,Scattered Clouds,270,2013-02-27 14:00:00
12:30 AM,77.0,75.2,94,29.68,6.2,SW,1.2,-,N/A,,Scattered Clouds,230,2013-02-27 14:30:00
1:00 AM,77,76,94,29.67,,WSW,1.2,,,,,240,2013-02-27 15:00:00
1:00 AM,77.0,75.2,94,29.65,6.2,WSW,1.2,-,N/A,,Partly Cloudy,240,2013-02-27 15:00:00
1:30 AM,77.0,75.2,94,29.65,6.2,North,3.5,-,N/A,,Partly Cloudy,10,2013-02-27 15:30:00
2:00 AM,77.0,75.2,94,29.65,6.2,West,2.3,-,N/A,,Scattered Clouds,260,2013-02-27 16:00:00
2:30 AM,77.0,75.2,94,29.62,6.2,Calm,Calm,-,N/A,,Scattered Clouds,0,2013-02-27 16:30:00
3:00 AM,77,76,95,29.63,,Calm,Calm,,,,,,2013-02-27 17:00:00
3:00 AM,77.0,75.2,94,29.62,6.2,Calm,Calm,-,N/A,,Scattered Clouds,0,2013-02-27 17:00:00
3:30 AM,77.0,75.2,94,29.62,6.2,South,1.2,-,N/A,,Scattered Clouds,170,2013-02-27 17:30:00
4:00 AM,77,76,94,29.64,,West,3.5,,,,,260,2013-02-27 18:00:00
4:00 AM,77.0,75.2,94,29.62,6.2,West,3.5,-,N/A,,Scattered Clouds,260,2013-02-27 18:00:00
4:30 AM,77.0,75.2,94,29.62,6.2,Calm,Calm,-,N/A,,Scattered Clouds,0,2013-02-27 18:30:00
5:00 AM,77.0,75.2,94,29.65,6.2,Calm,Calm,-,N/A,,Mostly Cloudy,0,2013-02-27 19:00:00
5:30 AM,77.0,75.2,94,29.65,6.2,WSW,3.5,-,N/A,,Scattered Clouds,250,2013-02-27 19:30:00
6:00 AM,77,76,94,29.66,16,Calm,Calm,,,,Scattered Clouds,,2013-02-27 20:00:00
6:00 AM,77.0,75.2,94,29.65,6.2,Calm,Calm,-,N/A,,Scattered Clouds,0,2013-02-27 20:00:00
6:30 AM,77.0,75.2,94,29.65,6.2,Calm,Calm,-,N/A,,Mostly Cloudy,0,2013-02-27 20:30:00
7:00 AM,78,76,91,29.69,,SW,2.3,,,,,230,2013-02-27 21:00:00
7:00 AM,77.0,75.2,94,29.68,6.2,SW,2.3,-,N/A,,Mostly Cloudy,230,2013-02-27 21:00:00
7:30 AM,78.8,75.2,89,29.68,6.2,SSE,6.9,-,N/A,,Mostly Cloudy,150,2013-02-27 21:30:00
8:00 AM,82.4,77.0,84,29.68,6.2,Calm,Calm,-,N/A,,Scattered Clouds,0,2013-02-27 22:00:00
8:30 AM,82.4,77.0,84,29.68,6.2,WNW,1.2,-,N/A,,Partly Cloudy,300,2013-02-27 22:30:00
9:00 AM,85,76,67,29.70,19,NE,3.5,,,,Partly Cloudy,40,2013-02-27 23:00:00
9:00 AM,84.2,75.2,74,29.68,6.2,NE,3.5,-,N/A,,Mostly Cloudy,40,2013-02-27 23:00:00
9:30 AM,86.0,77.0,74,29.68,6.2,SE,5.8,-,N/A,,Scattered Clouds,140,2013-02-27 23:30:00
10:00 AM,87.8,75.2,66,29.68,6.2,East,4.6,-,N/A,,Mostly Cloudy,90,2013-02-28 00:00:00
10:30 AM,89.6,77.0,66,29.65,6.2,ENE,3.5,-,N/A,,Mostly Cloudy,70,2013-02-28 00:30:00
11:00 AM,89.6,77.0,66,29.65,6.2,East,6.9,-,N/A,,Mostly Cloudy,80,2013-02-28 01:00:00
11:30 AM,89.6,77.0,66,29.65,6.2,NE,9.2,-,N/A,,Mostly Cloudy,50,2013-02-28 01:30:00
12:00 PM,87,78,68,29.65,19,NE,11.5,,,,Partly Cloudy,50,2013-02-28 02:00:00
12:00 PM,87.8,77.0,70,29.65,6.2,NE,11.5,-,N/A,,Partly Cloudy,50,2013-02-28 02:00:00
12:30 PM,87.8,78.8,75,29.62,6.2,NE,10.4,-,N/A,,Partly Cloudy,40,2013-02-28 02:30:00
1:00 PM,87,80,73,29.63,,NE,10.4,,,,,50,2013-02-28 03:00:00
1:00 PM,86.0,78.8,79,29.62,6.2,NE,10.4,-,N/A,,Mostly Cloudy,50,2013-02-28 03:00:00
1:30 PM,86.0,78.8,79,29.59,6.2,NE,9.2,-,N/A,,Scattered Clouds,40,2013-02-28 03:30:00
2:00 PM,87.8,78.8,75,29.59,5.6,NNE,10.4,-,N/A,Rain,Rain Showers,30,2013-02-28 04:00:00
2:30 PM,87.8,78.8,75,29.59,5.0,NE,5.8,-,N/A,,Scattered Clouds,50,2013-02-28 04:30:00
3:00 PM,85,78,73,29.60,12,SE,10.4,,,,Partly Cloudy,140,2013-02-28 05:00:00
3:00 PM,86.0,77.0,74,29.59,6.2,SE,10.4,-,N/A,,Mostly Cloudy,140,2013-02-28 05:00:00
3:20 PM,86.0,77.0,74,29.59,3.7,SE,11.5,-,N/A,Rain,Light Rain Showers,140,2013-02-28 05:20:00
3:24 PM,86.0,77.0,74,29.59,1.9,SE,10.4,-,N/A,Rain,Rain Showers,140,2013-02-28 05:24:00
3:30 PM,80.6,77.0,89,29.59,1.9,SSE,15.0,-,N/A,Rain,Rain Showers,150,2013-02-28 05:30:00
3:40 PM,80.6,78.8,94,29.59,3.1,SSE,4.6,-,N/A,Rain,Light Rain,150,2013-02-28 05:40:00
4:00 PM,80,78,93,29.61,,South,4.6,,,,,180,2013-02-28 06:00:00
4:00 PM,80.6,78.8,94,29.59,3.1,South,4.6,-,N/A,Rain,Rain Showers,180,2013-02-28 06:00:00
4:30 PM,82.4,80.6,94,29.59,6.2,WNW,4.6,-,N/A,,Mostly Cloudy,290,2013-02-28 06:30:00
5:00 PM,80.6,78.8,94,29.59,6.2,West,5.8,-,N/A,,Mostly Cloudy,270,2013-02-28 07:00:00
5:30 PM,82.4,80.6,94,29.59,6.2,WNW,5.8,-,N/A,,Mostly Cloudy,290,2013-02-28 07:30:00
6:00 PM,82,80,91,29.63,16,West,6.9,,,,Partly Cloudy,280,2013-02-28 08:00:00
6:00 PM,82.4,80.6,94,29.62,6.2,West,6.9,-,N/A,,Mostly Cloudy,280,2013-02-28 08:00:00
6:30 PM,82.4,78.8,89,29.62,6.2,West,3.5,-,N/A,,Mostly Cloudy,270,2013-02-28 08:30:00
7:00 PM,81,79,93,29.65,,Calm,Calm,,,,,,2013-02-28 09:00:00
7:00 PM,80.6,78.8,94,29.62,6.2,Calm,Calm,-,N/A,,Mostly Cloudy,0,2013-02-28 09:00:00
7:30 PM,80.6,78.8,94,29.65,6.2,Calm,Calm,-,N/A,,Mostly Cloudy,0,2013-02-28 09:30:00
8:00 PM,80.6,78.8,94,29.65,6.2,West,6.9,-,N/A,,Mostly Cloudy,270,2013-02-28 10:00:00
8:30 PM,80.6,78.8,94,29.65,6.2,Calm,Calm,-,N/A,,Scattered Clouds,0,2013-02-28 10:30:00
9:00 PM,80,79,95,29.69,19,SSW,1.2,,,,Scattered Clouds,210,2013-02-28 11:00:00
9:00 PM,80.6,78.8,94,29.68,6.2,SSW,1.2,-,N/A,,Mostly Cloudy,210,2013-02-28 11:00:00
9:30 PM,80.6,78.8,94,29.68,6.2,Calm,Calm,-,N/A,,Mostly Cloudy,0,2013-02-28 11:30:00
10:00 PM,80,78,93,29.71,,SSE,5.8,,,,,160,2013-02-28 12:00:00
10:00 PM,80.6,78.8,94,29.71,6.2,SSE,5.8,-,N/A,,Mostly Cloudy,160,2013-02-28 12:00:00
10:30 PM,80.6,77.0,89,29.68,6.2,South,6.9,-,N/A,,Mostly Cloudy,170,2013-02-28 12:30:00
11:00 PM,80.6,77.0,89,29.68,6.2,South,11.5,-,N/A,,Mostly Cloudy,190,2013-02-28 13:00:00
11:30 PM,80.6,77.0,89,29.68,6.2,South,11.5,-,N/A,,Mostly Cloudy,190,2013-02-28 13:30:00